This is the latest recevied weather packets stored in our database for station/object KN6DHD. If no packets are shown the sender has not sent any weather packets the latest 10 day(s).
| Time | Temp. | Humidity | Pressure | Rain* | Wind** | Luminosity | Snow |
|---|---|---|---|---|---|---|---|
| 1777930883 | 16.67° C | 69% | 1016 hPa | 0 mm | - | 96 W/m² | - |
| 1777930579 | 17.22° C | 69% | 1015.9 hPa | 0 mm | - | 87 W/m² | - |
| 1777930276 | 17.22° C | 67% | 1015.8 hPa | 0 mm | - | 85 W/m² | - |
| 1777929972 | 17.22° C | 67% | 1015.7 hPa | 0 mm | - | 90 W/m² | - |
| 1777929670 | 17.22° C | 68% | 1015.9 hPa | 0 mm | - | 97 W/m² | - |
| 1777929367 | 17.22° C | 67% | 1016.1 hPa | 0 mm | - | 114 W/m² | - |
| 1777929063 | 17.22° C | 67% | 1015.9 hPa | 0 mm | - | 130 W/m² | - |
| 1777928761 | 17.22° C | 67% | 1015.9 hPa | 0 mm | - | 160 W/m² | - |
| 1777928457 | 17.22° C | 68% | 1016 hPa | 0 mm | - | 186 W/m² | - |
| 1777928155 | 17.22° C | 69% | 1015.8 hPa | 0 mm | - | 207 W/m² | - |
| 1777927852 | 17.78° C | 73% | 1015.8 hPa | 0 mm | - | 190 W/m² | - |
| 1777927550 | 17.22° C | 74% | 1016 hPa | 0 mm | - | 189 W/m² | - |
| 1777927249 | 16.67° C | 75% | 1015.9 hPa | 0 mm | - | 206 W/m² | - |
| 1777926947 | 16.67° C | 74% | 1016 hPa | 0 mm | - | 181 W/m² | - |
| 1777926644 | 16.67° C | 75% | 1015.8 hPa | 0 mm | - | 182 W/m² | - |
| 1777926339 | 16.11° C | 76% | 1015.8 hPa | 0 mm | - | 220 W/m² | - |
| 1777926037 | 16.67° C | 76% | 1015.8 hPa | 0 mm | - | 219 W/m² | - |
| 1777925733 | 16.67° C | 78% | 1016 hPa | 0 mm | - | 274 W/m² | - |
| 1777925432 | 16.11° C | 79% | 1016 hPa | 0 mm | - | 218 W/m² | - |
| 1777925127 | 16.11° C | 79% | 1016 hPa | 0 mm | - | 208 W/m² | - |
| 1777924825 | 16.11° C | 80% | 1016.2 hPa | 0 mm | - | 190 W/m² | - |
| 1777924520 | 16.67° C | 81% | 1015.9 hPa | 0 mm | - | 191 W/m² | - |
| 1777924217 | 16.67° C | 82% | 1016.2 hPa | 0 mm | - | 210 W/m² | - |
| 1777923914 | 16.67° C | 82% | 1016 hPa | 0 mm | - | 203 W/m² | - |
| 1777923609 | 16.11° C | 84% | 1016.2 hPa | 0 mm | - | 191 W/m² | - |
* Rain latest hour (hover to see other rain measurements)
** Current wind speed in m/s (hover to see current wind gust speed)